Location: Mercogliano
(40.9167°N, 14.7333°E)
Time: 06:28:53
(UTC+00:00)

CZ-2C R/B - Pass Details

Date: 24 January 2021
Orbit: 785 x 870 km, 98.2° (Epoch: 08 March)

Event Time Altitude Azimuth Distance (km) Brightness Sun altitude
Exits shadow 18:10:23 26° 23° (NNE) 1,657 3.9 -22.9°
Maximum altitude 18:13:40 70° 101° (ESE) 919 2.6 -23.5°
Drops below altitude 10° 18:19:15 10° 186° (S) 2,508 5.3 -24.6°
Sets 18:21:38 0° 188° (S) 3,441 6.0 -25.0°
